Skip Page Navigation
NASA JPL Caltech
NASA Logo - Jet Propulsion Laboratory + View the NASA Portal
+ Center for Near-Earth Object Studies
JPL Home Earth Solar System Stars & Galaxies Technology
JPL Solar System Dynamics
BODIES ORBITS EPHEMERIDES TOOLS PHYSICAL DATA DISCOVERY FAQ SITE MAP
JPL Small-Body Database Browser
Search: [ help ]  
213179 (2000 SR162)
Classification: Main-belt Asteroid          SPK-ID: 2213179
Ephemeris | Orbit Diagram | Orbital Elements | Mission Design | Physical Parameters | Discovery Circumstances ]

[ show orbit diagram ]
Orbital Elements at Epoch 2459396.5 (2021-Jul-01.0) TDB
Reference: JPL 22 (heliocentric ecliptic J2000)
 Element Value Uncertainty (1-sigma)   Units 
e .1589767653499311 4.8313e-08  
a 2.235784469108327 1.1095e-08 au
q 1.880346686189872 1.106e-07 au
i 8.565018183381433 4.5395e-06 deg
node 135.8495114148963 3.1266e-05 deg
peri 226.8505145020935 3.6302e-05 deg
M 76.32268872245109 1.4347e-05 deg
tp 2459137.622390256729
(2020-Oct-15.12239026)
4.9314e-05 TDB
period 1221.077782603891
3.34
9.0895e-06
2.489e-08
d
yr
n .2948215135257942 2.1946e-09 deg/d
Q 2.591222252026782 1.2859e-08 au
  Orbit Determination Parameters
   # obs. used (total)      412  
   data-arc span      9495 days (26.00 yr)  
   first obs. used      1995-01-08  
   last obs. used      2021-01-06  
   planetary ephem.      DE441  
   SB-pert. ephem.      SB441-N16  
   condition code      0  
   norm. resid. RMS      .53421  
   source      ORB  
   producer      Otto Matic  
   solution date      2021-Jul-09 11:31:02  

Additional Information
 Earth MOID = .886903 au 
 Jupiter MOID = 2.86689 au 
 T_jup = 3.607 
[ show covariance matrix ]

Ephemeris | Orbit Diagram | Orbital Elements | Mission Design | Physical Parameters | Discovery Circumstances ]

Physical Parameter Table
Parameter Symbol Value Units Sigma Reference Notes
absolute magnitude H 17.14   n/a E2021B55  

213179 (2000 SR162)          Discovered 2000-Sep-25 by NEAT at Haleakala
Reference: 20090509/Numbers.arcLast Updated: 2009-05-11
Ephemeris | Orbit Diagram | Orbital Elements | Mission Design | Physical Parameters | Discovery Circumstances ]
ABOUT SSD CREDITS/AWARDS PRIVACY/COPYRIGHT GLOSSARY LINKS
FirstGov 2021-Jul-24 18:51 UT
(server date/time)  
NASA Home Page
Site Manager:   Ryan S. Park
Webmaster  Alan B. Chamberlin